Zurück zum Katalog

FENGYUN 1C DEB

AktivSSO
NORAD 31685·DEBRIS·🇨🇳 China

Gestartet May 10, 1999 von Taiyuan Satellite Launch Center

Loading…

Nächste Überflüge (nächste 24 Stunden)

TLE

AlterndSource: Space-Track

Epoche: Sep 9, 2026, 18:33 UTC

1 31685U 99025CCT 26252.77311729  .00000156  00000-0  11285-3 0  9994
2 31685  98.7113 273.5414 0016665 176.8813 183.2465 14.09742120989081

Verfolge FENGYUN 1C DEB in Echtzeit mit AllMySat

Download on the App Store